Miscellaneous Local Product
Issued by NWS North Platte, NE

Home | Current Version | Previous Version | Text Only | Print | Product List | Glossary On
Versions: 1 2 3 4 5 6 7 8 9 10 11 12 13 14 15 16 17 18 19 20 21 22 23 24 25 26 27 28 29 30 31 32 33 34 35 36 37 38 39 40 41 42 43 44 45 46 47 48 49 50
000
AXUS43 KLBF 250010
MISLBF


WESTERN AND NORTH CENTRAL NEBRASKA HOURLY WEATHER ROUNDUP
NATIONAL WEATHER SERVICE NORTH PLATTE NE
700 PM CDT FRI OCT 24 2014

***STATIONS NOT REPORTING VARIABLES SUCH AS SKY/WEATHER OR
PRESSURE ARE PROVIDED BY THE NEBRASKA DEPARTMENT OF
ROADS...RAWS...AND APRS NETWORKS...AND ARE NOT UNDER
NATIONAL WEATHER SERVICE QUALITY CONTROL***

...OBSERVATIONS IN AND NEAR THE EASTERN PANHANDLE OF NEBRASKA...

CITY           SKY/WX    TMP DP  RH WIND       PRES   REMARKS
PINE RIDGE     CLEAR     63  38  39 NE8       30.02R
CHADRON        CLEAR     70  38  31 NE5       30.01R
ALLIANCE       CLEAR     66  37  34 E7        30.03R
SIDNEY         CLEAR     67  34  29 NE5       30.09R
WHITECLAY        N/A     68  36  30 CALM        N/A
RUSHVILLE        N/A     74  22  14 SE8         N/A
LISCO            N/A     77  23  13 CALM        N/A
BIG SPRINGS      N/A     82  36  19 CALM        N/A
LEWELLEN         N/A     81  22  11 CALM        N/A
$$

...OBSERVATIONS IN NORTH CENTRAL NEBRASKA...

CITY           SKY/WX    TMP DP  RH WIND       PRES   REMARKS
VALENTINE      CLEAR     70  34  26 N5        29.99R
THEDFORD       CLEAR     71  35  27 CALM      30.01S
AINSWORTH      HAZE      64  39  38 CALM      29.99S VSB 3/4
O`NEILL        PTCLDY    67  40  36 CALM      29.99R HAZE
ORD            CLEAR     59  43  55 CALM      29.97R
BROKEN BOW     CLEAR     64  40  41 N5        29.99R
BROWNLEE         N/A     76  25  15 NE6         N/A
SPRINGVIEW       N/A     67  37  33 CALM        N/A
BREWSTER         N/A     75  38  26 CALM        N/A
ROSE             N/A     74  44  33 E5          N/A
NEWPORT          N/A     65  38  37 S3          N/A
SARGENT          N/A     69  44  39 CALM        N/A
COMSTOCK         N/A     72  43  34 E5          N/A
CHAMBERS         N/A     60  37  42 CALM        N/A
EWING            N/A     63  44  50 CALM        N/A
$$

...OBSERVATIONS IN SOUTHWEST NEBRASKA AND FAR NORTHEAST COLORADO...

CITY           SKY/WX    TMP DP  RH WIND       PRES   REMARKS
WRAY           FAIR      79  26  14 S3        30.06S
HOLYOKE        FAIR      70  36  28 CALM      30.06S
IMPERIAL       CLEAR     72  37  28 SE5       30.04R
OGALLALA       CLEAR     71  36  27 CALM      30.04R
NORTH PLATTE   CLEAR     66  42  41 CALM      30.00R
MCCOOK         CLEAR     72  33  24 NW8       30.01R
LEXINGTON      CLEAR     72  37  28 NW3       29.98S
PAXTON           N/A     83  38  20 CALM        N/A
SUTHERLAND       N/A     80  27  14 S3          N/A
BRADY            N/A     77  39  25 CALM        N/A
GOTHENBURG       N/A     83  30  15 W5          N/A
CALLAWAY         N/A     83  40  21 NE3         N/A
$$

...SOME WEATHER OBSERVATIONS FROM AROUND THE REGION...

CITY           SKY/WX    TMP DP  RH WIND       PRES   REMARKS
DENVER         CLEAR     71  25  17 E7        30.15R
LARAMIE        CLEAR     61  21  21 W12       30.26R
CHEYENNE       CLEAR     66  25  21 SW9       30.20R
SCOTTSBLUFF    CLEAR     70  32  24 NW7       30.03S
RAPID CITY     CLEAR     58  39  49 N8        30.04S
PIERRE         CLEAR     65  39  38 N12       29.97R
WINNER         FAIR      71  28  20 N6        29.97R
SIOUX FALLS    PTCLDY    62  42  47 NW6       29.93R
OMAHA          MOCLDY    69  56  62 CALM      29.93R
GRAND ISLAND   CLEAR     64  48  56 NE5       29.97R
KANSAS CITY    MOCLDY    70  62  76 S12       29.93S
WICHITA        PTCLDY    74  60  61 SW7       29.99S
HAYS           CLEAR     75  54  46 SE3       29.99R
LIBERAL        CLEAR     79  41  25 S8        30.05S
GOODLAND       CLEAR     74  34  23 CALM      30.07S
$$



USA.gov is the U.S. government's official web portal to all federal, state and local government web resources and services.